This is the latest recevied weather packets stored in our database for station/object K1NOT-WX. If no packets are shown the sender has not sent any weather packets the latest 10 day(s).
| Time | Temp. | Humidity | Pressure | Rain* | Wind** | Luminosity | Snow |
|---|---|---|---|---|---|---|---|
| 1777690646 | 17.22° C | 54% | 1006.1 hPa | 0 mm | - | - | - |
| 1777689732 | 17.22° C | 56% | 1005.8 hPa | 0 mm | - | - | - |
| 1777688832 | 17.78° C | 62% | 1005.8 hPa | 0 mm | - | - | - |
| 1777687932 | 17.78° C | 61% | 1005.8 hPa | 0 mm | - | - | - |
| 1777687032 | 17.78° C | 61% | 1005.8 hPa | 0 mm | - | - | - |
| 1777686132 | 17.78° C | 60% | 1005.8 hPa | 0 mm | - | - | - |
| 1777685232 | 18.33° C | 59% | 1005.8 hPa | 0 mm | - | - | - |
| 1777684332 | 18.89° C | 55% | 1006.1 hPa | 0 mm | - | - | - |
| 1777683433 | 18.89° C | 54% | 1005.8 hPa | 0 mm | - | - | - |
| 1777682533 | 19.44° C | 54% | 1005.8 hPa | 0 mm | - | - | - |
| 1777681633 | 19.44° C | 53% | 1005.8 hPa | 0 mm | - | - | - |
| 1777680733 | 20° C | 51% | 1005.8 hPa | 0 mm | - | - | - |
| 1777679833 | 20° C | 49% | 1005.8 hPa | 0 mm | - | - | - |
| 1777678933 | 20° C | 50% | 1005.8 hPa | 0 mm | - | - | - |
| 1777678033 | 20° C | 50% | 1006.1 hPa | 0 mm | - | - | - |
| 1777677133 | 20° C | 51% | 1006.1 hPa | 0 mm | - | - | - |
| 1777676233 | 19.44° C | 52% | 1006.4 hPa | 0 mm | - | - | - |
| 1777675333 | 19.44° C | 52% | 1006.4 hPa | 0 mm | - | - | - |
| 1777674434 | 20° C | 51% | 1006.8 hPa | 0 mm | - | - | - |
| 1777673533 | 19.44° C | 54% | 1006.8 hPa | 0 mm | - | - | - |
| 1777672633 | 20° C | 53% | 1006.8 hPa | 0 mm | - | - | - |
| 1777671733 | 20° C | 53% | 1006.8 hPa | 0 mm | - | - | - |
| 1777670833 | 20° C | 53% | 1006.8 hPa | 0 mm | - | - | - |
| 1777669933 | 18.89° C | 56% | 1006.8 hPa | 0 mm | - | - | - |
| 1777669033 | 19.44° C | 55% | 1007.1 hPa | 0 mm | - | - | - |
* Rain latest hour (hover to see other rain measurements)
** Current wind speed in m/s (hover to see current wind gust speed)